Time,TemperatureF,DewpointF,PressureIn,WindDirection,WindDirectionDegrees,WindSpeedMPH,WindSpeedGustMPH,Humidity,HourlyPrecipIn,Conditions,Clouds,dailyrainin,SoftwareType,DateUTC
2013-04-09 00:00:00,69.6,62.8,30.00,NE,45,2.0,-999.0,79,0.00,,,0.00,Wunderground v.1.15,2013-04-09 10:00:00,
2013-04-09 00:05:00,69.6,62.8,30.00,NE,45,2.0,-999.0,79,0.00,,,0.00,Wunderground v.1.15,2013-04-09 10:05:00,
2013-04-09 00:10:00,69.6,62.8,30.00,NE,45,2.0,-999.0,79,0.00,,,0.00,Wunderground v.1.15,2013-04-09 10:10:00,
2013-04-09 00:15:00,69.6,62.8,30.00,NE,45,2.0,-999.0,79,0.00,,,0.00,Wunderground v.1.15,2013-04-09 10:15:00,
2013-04-09 00:20:00,69.6,62.8,30.00,NE,45,2.0,-999.0,79,0.00,,,0.00,Wunderground v.1.15,2013-04-09 10:20:00,
2013-04-09 00:25:00,69.6,62.8,30.00,NE,45,2.0,-999.0,79,0.00,,,0.00,Wunderground v.1.15,2013-04-09 10:25:00,
2013-04-09 00:30:00,69.6,62.8,30.00,NE,45,2.0,-999.0,79,0.00,,,0.00,Wunderground v.1.15,2013-04-09 10:30:00,
2013-04-09 00:35:00,69.6,62.8,30.00,NE,45,2.0,-999.0,79,0.00,,,0.00,Wunderground v.1.15,2013-04-09 10:35:00,
2013-04-09 00:40:00,69.6,62.8,30.00,NE,45,2.0,-999.0,79,0.00,,,0.00,Wunderground v.1.15,2013-04-09 10:40:00,
2013-04-09 00:50:00,69.3,62.9,30.00,NNE,23,3.0,-999.0,80,0.00,,,0.00,Wunderground v.1.15,2013-04-09 10:50:00,
2013-04-09 00:55:00,69.3,62.9,30.00,NNE,23,3.0,-999.0,80,0.00,,,0.00,Wunderground v.1.15,2013-04-09 10:55:00,
2013-04-09 01:00:00,69.3,62.9,30.00,NNE,23,3.0,-999.0,80,0.00,,,0.00,Wunderground v.1.15,2013-04-09 11:00:00,
2013-04-09 01:05:00,69.3,62.9,30.00,NNE,23,3.0,-999.0,80,0.00,,,0.00,Wunderground v.1.15,2013-04-09 11:05:00,
2013-04-09 01:10:00,69.3,62.9,30.00,NNE,23,3.0,-999.0,80,0.00,,,0.00,Wunderground v.1.15,2013-04-09 11:10:00,
2013-04-09 01:15:00,68.6,63.2,29.99,NE,45,2.0,-999.0,83,0.00,,,0.00,Wunderground v.1.15,2013-04-09 11:15:00,
2013-04-09 01:20:00,68.6,63.2,29.99,NE,45,2.0,-999.0,83,0.00,,,0.00,Wunderground v.1.15,2013-04-09 11:20:00,
2013-04-09 01:25:00,68.6,63.2,29.99,NE,45,2.0,-999.0,83,0.00,,,0.00,Wunderground v.1.15,2013-04-09 11:25:00,
2013-04-09 01:30:00,68.6,63.2,29.99,NE,45,2.0,-999.0,83,0.00,,,0.00,Wunderground v.1.15,2013-04-09 11:30:00,
2013-04-09 01:35:00,68.6,63.2,29.99,NE,45,2.0,-999.0,83,0.00,,,0.00,Wunderground v.1.15,2013-04-09 11:35:00,
2013-04-09 01:40:00,68.6,63.2,29.99,NE,45,2.0,-999.0,83,0.00,,,0.00,Wunderground v.1.15,2013-04-09 11:40:00,
2013-04-09 01:45:00,68.0,63.7,29.98,NE,45,0.0,-999.0,86,0.00,,,0.00,Wunderground v.1.15,2013-04-09 11:45:00,
2013-04-09 01:50:00,68.0,63.7,29.98,NE,45,0.0,-999.0,86,0.00,,,0.00,Wunderground v.1.15,2013-04-09 11:50:00,
2013-04-09 01:55:00,68.0,63.7,29.98,NE,45,0.0,-999.0,86,0.00,,,0.00,Wunderground v.1.15,2013-04-09 11:55:00,
2013-04-09 02:00:00,68.0,63.7,29.98,NE,45,0.0,-999.0,86,0.00,,,0.00,Wunderground v.1.15,2013-04-09 12:00:00,
2013-04-09 02:05:00,68.0,63.7,29.98,NE,45,0.0,-999.0,86,0.00,,,0.00,Wunderground v.1.15,2013-04-09 12:05:00,
2013-04-09 02:10:00,68.0,63.7,29.98,NE,45,0.0,-999.0,86,0.00,,,0.00,Wunderground v.1.15,2013-04-09 12:10:00,
2013-04-09 02:15:00,67.7,63.0,29.96,NE,45,0.0,-999.0,85,0.00,,,0.00,Wunderground v.1.15,2013-04-09 12:15:00,
2013-04-09 02:20:00,67.7,63.0,29.96,NE,45,0.0,-999.0,85,0.00,,,0.00,Wunderground v.1.15,2013-04-09 12:20:00,
2013-04-09 02:25:00,67.7,63.0,29.96,NE,45,0.0,-999.0,85,0.00,,,0.00,Wunderground v.1.15,2013-04-09 12:25:00,
2013-04-09 02:30:00,67.7,63.0,29.96,NE,45,0.0,-999.0,85,0.00,,,0.00,Wunderground v.1.15,2013-04-09 12:30:00,
2013-04-09 02:35:00,67.7,63.0,29.96,NE,45,0.0,-999.0,85,0.00,,,0.00,Wunderground v.1.15,2013-04-09 12:35:00,
2013-04-09 02:40:00,67.7,63.0,29.96,NE,45,0.0,-999.0,85,0.00,,,0.00,Wunderground v.1.15,2013-04-09 12:40:00,
2013-04-09 02:45:00,67.4,62.7,29.95,NE,45,1.0,-999.0,85,0.00,,,0.00,Wunderground v.1.15,2013-04-09 12:45:00,
2013-04-09 02:50:00,67.4,62.7,29.95,NE,45,1.0,-999.0,85,0.00,,,0.00,Wunderground v.1.15,2013-04-09 12:50:00,
2013-04-09 02:55:00,67.4,62.7,29.95,NE,45,1.0,-999.0,85,0.00,,,0.00,Wunderground v.1.15,2013-04-09 12:55:00,
2013-04-09 03:00:00,67.4,62.7,29.95,NE,45,1.0,-999.0,85,0.00,,,0.00,Wunderground v.1.15,2013-04-09 13:00:00,
2013-04-09 03:05:00,67.4,62.7,29.95,NE,45,1.0,-999.0,85,0.00,,,0.00,Wunderground v.1.15,2013-04-09 13:05:00,
2013-04-09 03:10:00,67.4,62.7,29.95,NE,45,1.0,-999.0,85,0.00,,,0.00,Wunderground v.1.15,2013-04-09 13:10:00,
2013-04-09 03:15:00,67.6,61.6,29.93,NE,45,1.0,-999.0,81,0.00,,,0.00,Wunderground v.1.15,2013-04-09 13:15:00,
2013-04-09 03:20:00,67.6,61.6,29.93,NE,45,1.0,-999.0,81,0.00,,,0.00,Wunderground v.1.15,2013-04-09 13:20:00,
2013-04-09 03:25:00,67.6,61.6,29.93,NE,45,1.0,-999.0,81,0.00,,,0.00,Wunderground v.1.15,2013-04-09 13:25:00,
2013-04-09 03:30:00,67.6,61.6,29.93,NE,45,1.0,-999.0,81,0.00,,,0.00,Wunderground v.1.15,2013-04-09 13:30:00,
2013-04-09 03:35:00,67.6,61.6,29.93,NE,45,1.0,-999.0,81,0.00,,,0.00,Wunderground v.1.15,2013-04-09 13:35:00,
2013-04-09 03:40:00,67.6,61.6,29.93,NE,45,1.0,-999.0,81,0.00,,,0.00,Wunderground v.1.15,2013-04-09 13:40:00,
2013-04-09 03:45:00,67.4,61.0,29.92,NNE,23,1.0,-999.0,80,0.00,,,0.00,Wunderground v.1.15,2013-04-09 13:45:00,
2013-04-09 03:50:00,67.4,61.0,29.92,NNE,23,1.0,-999.0,80,0.00,,,0.00,Wunderground v.1.15,2013-04-09 13:50:00,
2013-04-09 03:55:00,67.4,61.0,29.92,NNE,23,1.0,-999.0,80,0.00,,,0.00,Wunderground v.1.15,2013-04-09 13:55:00,
2013-04-09 04:00:00,67.4,61.0,29.92,NNE,23,1.0,-999.0,80,0.00,,,0.00,Wunderground v.1.15,2013-04-09 14:00:00,
2013-04-09 04:05:00,67.4,61.0,29.92,NNE,23,1.0,-999.0,80,0.00,,,0.00,Wunderground v.1.15,2013-04-09 14:05:00,
2013-04-09 04:10:00,67.4,61.0,29.92,NNE,23,1.0,-999.0,80,0.00,,,0.00,Wunderground v.1.15,2013-04-09 14:10:00,
2013-04-09 04:15:00,67.3,60.2,29.93,NNE,23,1.0,-999.0,78,0.00,,,0.00,Wunderground v.1.15,2013-04-09 14:15:00,
2013-04-09 04:20:00,67.3,60.2,29.93,NNE,23,1.0,-999.0,78,0.00,,,0.00,Wunderground v.1.15,2013-04-09 14:20:00,
2013-04-09 04:25:00,67.3,60.2,29.93,NNE,23,1.0,-999.0,78,0.00,,,0.00,Wunderground v.1.15,2013-04-09 14:25:00,
2013-04-09 04:30:00,67.3,60.2,29.93,NNE,23,1.0,-999.0,78,0.00,,,0.00,Wunderground v.1.15,2013-04-09 14:30:00,
2013-04-09 04:35:00,67.3,60.2,29.93,NNE,23,1.0,-999.0,78,0.00,,,0.00,Wunderground v.1.15,2013-04-09 14:35:00,
2013-04-09 04:40:00,67.3,60.2,29.93,NNE,23,1.0,-999.0,78,0.00,,,0.00,Wunderground v.1.15,2013-04-09 14:40:00,
2013-04-09 04:45:00,67.4,58.8,29.93,NE,45,1.0,-999.0,74,0.00,,,0.00,Wunderground v.1.15,2013-04-09 14:45:00,
2013-04-09 04:50:00,67.4,58.8,29.93,NE,45,1.0,-999.0,74,0.00,,,0.00,Wunderground v.1.15,2013-04-09 14:50:00,
2013-04-09 04:55:00,67.4,58.8,29.93,NE,45,1.0,-999.0,74,0.00,,,0.00,Wunderground v.1.15,2013-04-09 14:55:00,
2013-04-09 05:00:00,67.4,58.8,29.93,NE,45,1.0,-999.0,74,0.00,,,0.00,Wunderground v.1.15,2013-04-09 15:00:00,
2013-04-09 05:05:00,67.4,58.8,29.93,NE,45,1.0,-999.0,74,0.00,,,0.00,Wunderground v.1.15,2013-04-09 15:05:00,
2013-04-09 05:10:00,67.4,58.8,29.93,NE,45,1.0,-999.0,74,0.00,,,0.00,Wunderground v.1.15,2013-04-09 15:10:00,
2013-04-09 05:15:00,66.8,60.1,29.93,NE,45,0.0,-999.0,79,0.00,,,0.00,Wunderground v.1.15,2013-04-09 15:15:00,
2013-04-09 05:20:00,66.8,60.1,29.93,NE,45,0.0,-999.0,79,0.00,,,0.00,Wunderground v.1.15,2013-04-09 15:20:00,
2013-04-09 05:25:00,66.8,60.1,29.93,NE,45,0.0,-999.0,79,0.00,,,0.00,Wunderground v.1.15,2013-04-09 15:25:00,
2013-04-09 05:30:00,66.8,60.1,29.93,NE,45,0.0,-999.0,79,0.00,,,0.00,Wunderground v.1.15,2013-04-09 15:30:00,
2013-04-09 05:35:00,66.8,60.1,29.93,NE,45,0.0,-999.0,79,0.00,,,0.00,Wunderground v.1.15,2013-04-09 15:35:00,
2013-04-09 05:40:00,66.8,60.1,29.93,NE,45,0.0,-999.0,79,0.00,,,0.00,Wunderground v.1.15,2013-04-09 15:40:00,
2013-04-09 05:45:00,67.2,60.5,29.93,NE,45,0.0,-999.0,79,0.00,,,0.00,Wunderground v.1.15,2013-04-09 15:45:00,
2013-04-09 05:50:00,67.2,60.5,29.93,NE,45,0.0,-999.0,79,0.00,,,0.00,Wunderground v.1.15,2013-04-09 15:50:00,
2013-04-09 05:55:00,67.2,60.5,29.93,NE,45,0.0,-999.0,79,0.00,,,0.00,Wunderground v.1.15,2013-04-09 15:55:00,
2013-04-09 06:00:00,67.2,60.5,29.93,NE,45,0.0,-999.0,79,0.00,,,0.00,Wunderground v.1.15,2013-04-09 16:00:00,
2013-04-09 06:05:00,67.2,60.5,29.93,NE,45,0.0,-999.0,79,0.00,,,0.00,Wunderground v.1.15,2013-04-09 16:05:00,
2013-04-09 06:10:00,67.2,60.5,29.93,NE,45,0.0,-999.0,79,0.00,,,0.00,Wunderground v.1.15,2013-04-09 16:10:00,
2013-04-09 06:15:00,67.7,63.0,29.94,ENE,68,2.0,-999.0,85,0.00,,,0.00,Wunderground v.1.15,2013-04-09 16:15:00,
2013-04-09 06:20:00,67.7,63.0,29.94,ENE,68,2.0,-999.0,85,0.00,,,0.00,Wunderground v.1.15,2013-04-09 16:20:00,
2013-04-09 06:25:00,67.7,63.0,29.94,ENE,68,2.0,-999.0,85,0.00,,,0.00,Wunderground v.1.15,2013-04-09 16:25:00,
2013-04-09 06:30:00,67.7,63.0,29.94,ENE,68,2.0,-999.0,85,0.00,,,0.00,Wunderground v.1.15,2013-04-09 16:30:00,
2013-04-09 06:35:00,67.7,63.0,29.94,ENE,68,2.0,-999.0,85,0.00,,,0.00,Wunderground v.1.15,2013-04-09 16:35:00,
2013-04-09 06:40:00,67.7,63.0,29.94,ENE,68,2.0,-999.0,85,0.00,,,0.00,Wunderground v.1.15,2013-04-09 16:40:00,
2013-04-09 06:45:00,67.5,62.2,29.95,ENE,68,3.0,-999.0,83,0.00,,,0.00,Wunderground v.1.15,2013-04-09 16:45:00,
2013-04-09 06:50:00,67.5,62.2,29.95,ENE,68,3.0,-999.0,83,0.00,,,0.00,Wunderground v.1.15,2013-04-09 16:50:00,
2013-04-09 06:55:00,67.5,62.2,29.95,ENE,68,3.0,-999.0,83,0.00,,,0.00,Wunderground v.1.15,2013-04-09 16:55:00,
2013-04-09 07:00:00,67.5,62.2,29.95,ENE,68,3.0,-999.0,83,0.00,,,0.00,Wunderground v.1.15,2013-04-09 17:00:00,
2013-04-09 07:05:00,67.5,62.2,29.95,ENE,68,3.0,-999.0,83,0.00,,,0.00,Wunderground v.1.15,2013-04-09 17:05:00,
2013-04-09 07:10:00,67.5,62.2,29.95,ENE,68,3.0,-999.0,83,0.00,,,0.00,Wunderground v.1.15,2013-04-09 17:10:00,
2013-04-09 07:15:00,68.0,62.3,29.96,ENE,68,2.0,-999.0,82,0.00,,,0.00,Wunderground v.1.15,2013-04-09 17:15:00,
2013-04-09 07:20:00,68.0,62.3,29.96,ENE,68,2.0,-999.0,82,0.00,,,0.00,Wunderground v.1.15,2013-04-09 17:20:00,
2013-04-09 07:25:00,68.0,62.3,29.96,ENE,68,2.0,-999.0,82,0.00,,,0.00,Wunderground v.1.15,2013-04-09 17:25:00,
2013-04-09 07:30:00,68.0,62.3,29.96,ENE,68,2.0,-999.0,82,0.00,,,0.00,Wunderground v.1.15,2013-04-09 17:30:00,
2013-04-09 07:35:00,68.0,62.3,29.96,ENE,68,2.0,-999.0,82,0.00,,,0.00,Wunderground v.1.15,2013-04-09 17:35:00,
2013-04-09 07:40:00,68.0,62.3,29.96,ENE,68,2.0,-999.0,82,0.00,,,0.00,Wunderground v.1.15,2013-04-09 17:40:00,
2013-04-09 07:45:00,70.9,61.0,29.97,ENE,68,2.0,-999.0,71,0.00,,,0.00,Wunderground v.1.15,2013-04-09 17:45:00,
2013-04-09 07:50:00,70.9,61.0,29.97,ENE,68,2.0,-999.0,71,0.00,,,0.00,Wunderground v.1.15,2013-04-09 17:50:00,
2013-04-09 07:55:00,70.9,61.0,29.97,ENE,68,2.0,-999.0,71,0.00,,,0.00,Wunderground v.1.15,2013-04-09 17:55:00,
2013-04-09 08:00:00,70.9,61.0,29.97,ENE,68,2.0,-999.0,71,0.00,,,0.00,Wunderground v.1.15,2013-04-09 18:00:00,
2013-04-09 08:05:00,70.9,61.0,29.97,ENE,68,2.0,-999.0,71,0.00,,,0.00,Wunderground v.1.15,2013-04-09 18:05:00,
2013-04-09 08:10:00,70.9,61.0,29.97,ENE,68,2.0,-999.0,71,0.00,,,0.00,Wunderground v.1.15,2013-04-09 18:10:00,
2013-04-09 08:15:00,74.5,62.0,29.97,NE,45,3.0,-999.0,65,0.00,,,0.00,Wunderground v.1.15,2013-04-09 18:15:00,
2013-04-09 08:20:00,74.5,62.0,29.97,NE,45,3.0,-999.0,65,0.00,,,0.00,Wunderground v.1.15,2013-04-09 18:20:00,
2013-04-09 08:25:00,74.5,62.0,29.97,NE,45,3.0,-999.0,65,0.00,,,0.00,Wunderground v.1.15,2013-04-09 18:25:00,
2013-04-09 08:30:00,74.5,62.0,29.97,NE,45,3.0,-999.0,65,0.00,,,0.00,Wunderground v.1.15,2013-04-09 18:30:00,
2013-04-09 08:35:00,74.5,62.0,29.97,NE,45,3.0,-999.0,65,0.00,,,0.00,Wunderground v.1.15,2013-04-09 18:35:00,
2013-04-09 08:40:00,74.5,62.0,29.97,NE,45,3.0,-999.0,65,0.00,,,0.00,Wunderground v.1.15,2013-04-09 18:40:00,
2013-04-09 08:45:00,76.9,63.8,29.97,NE,45,5.0,-999.0,64,0.00,,,0.00,Wunderground v.1.15,2013-04-09 18:45:00,
2013-04-09 08:50:00,76.9,63.8,29.97,NE,45,5.0,-999.0,64,0.00,,,0.00,Wunderground v.1.15,2013-04-09 18:50:00,
2013-04-09 08:55:00,76.9,63.8,29.97,NE,45,5.0,-999.0,64,0.00,,,0.00,Wunderground v.1.15,2013-04-09 18:55:00,
2013-04-09 09:00:00,76.9,63.8,29.97,NE,45,5.0,-999.0,64,0.00,,,0.00,Wunderground v.1.15,2013-04-09 19:00:00,
2013-04-09 09:05:00,76.9,63.8,29.97,NE,45,5.0,-999.0,64,0.00,,,0.00,Wunderground v.1.15,2013-04-09 19:05:00,
2013-04-09 09:10:00,76.9,63.8,29.97,NE,45,5.0,-999.0,64,0.00,,,0.00,Wunderground v.1.15,2013-04-09 19:10:00,
2013-04-09 09:15:00,77.9,62.9,29.97,NE,45,6.0,-999.0,60,0.00,,,0.00,Wunderground v.1.15,2013-04-09 19:15:00,
2013-04-09 09:20:00,77.9,62.9,29.97,NE,45,6.0,-999.0,60,0.00,,,0.00,Wunderground v.1.15,2013-04-09 19:20:00,
2013-04-09 09:25:00,77.9,62.9,29.97,NE,45,6.0,-999.0,60,0.00,,,0.00,Wunderground v.1.15,2013-04-09 19:25:00,
2013-04-09 09:30:00,77.9,62.9,29.97,NE,45,6.0,-999.0,60,0.00,,,0.00,Wunderground v.1.15,2013-04-09 19:30:00,
2013-04-09 09:35:00,77.9,62.9,29.97,NE,45,6.0,-999.0,60,0.00,,,0.00,Wunderground v.1.15,2013-04-09 19:35:00,
2013-04-09 09:40:00,77.9,62.9,29.97,NE,45,6.0,-999.0,60,0.00,,,0.00,Wunderground v.1.15,2013-04-09 19:40:00,
2013-04-09 09:45:00,79.9,64.8,29.97,NE,45,6.0,-999.0,60,0.00,,,0.00,Wunderground v.1.15,2013-04-09 19:45:00,
2013-04-09 09:50:00,79.9,64.8,29.97,NE,45,6.0,-999.0,60,0.00,,,0.00,Wunderground v.1.15,2013-04-09 19:50:00,
2013-04-09 09:55:00,79.9,64.8,29.97,NE,45,6.0,-999.0,60,0.00,,,0.00,Wunderground v.1.15,2013-04-09 19:55:00,
2013-04-09 10:00:00,79.9,64.8,29.97,NE,45,6.0,-999.0,60,0.00,,,0.00,Wunderground v.1.15,2013-04-09 20:00:00,
2013-04-09 10:05:00,79.9,64.8,29.97,NE,45,6.0,-999.0,60,0.00,,,0.00,Wunderground v.1.15,2013-04-09 20:05:00,
2013-04-09 10:10:00,79.9,64.8,29.97,NE,45,6.0,-999.0,60,0.00,,,0.00,Wunderground v.1.15,2013-04-09 20:10:00,
2013-04-09 10:15:00,80.3,64.7,29.97,NE,45,7.0,-999.0,59,0.00,,,0.00,Wunderground v.1.15,2013-04-09 20:15:00,
2013-04-09 10:20:00,80.3,64.7,29.97,NE,45,7.0,-999.0,59,0.00,,,0.00,Wunderground v.1.15,2013-04-09 20:20:00,
2013-04-09 10:25:00,80.3,64.7,29.97,NE,45,7.0,-999.0,59,0.00,,,0.00,Wunderground v.1.15,2013-04-09 20:25:00,
2013-04-09 10:30:00,80.3,64.7,29.97,NE,45,7.0,-999.0,59,0.00,,,0.00,Wunderground v.1.15,2013-04-09 20:30:00,
2013-04-09 10:35:00,80.3,64.7,29.97,NE,45,7.0,-999.0,59,0.00,,,0.00,Wunderground v.1.15,2013-04-09 20:35:00,
2013-04-09 10:40:00,80.3,64.7,29.97,NE,45,7.0,-999.0,59,0.00,,,0.00,Wunderground v.1.15,2013-04-09 20:40:00,
2013-04-09 10:45:00,80.6,64.5,29.97,NE,45,8.0,-999.0,58,0.00,,,0.00,Wunderground v.1.15,2013-04-09 20:45:00,
2013-04-09 10:50:00,80.6,64.5,29.97,NE,45,8.0,-999.0,58,0.00,,,0.00,Wunderground v.1.15,2013-04-09 20:50:00,
2013-04-09 10:55:00,80.6,64.5,29.97,NE,45,8.0,-999.0,58,0.00,,,0.00,Wunderground v.1.15,2013-04-09 20:55:00,
2013-04-09 11:00:00,80.6,64.5,29.97,NE,45,8.0,-999.0,58,0.00,,,0.00,Wunderground v.1.15,2013-04-09 21:00:00,
2013-04-09 11:05:00,80.6,64.5,29.97,NE,45,8.0,-999.0,58,0.00,,,0.00,Wunderground v.1.15,2013-04-09 21:05:00,
2013-04-09 11:10:00,80.6,64.5,29.97,NE,45,8.0,-999.0,58,0.00,,,0.00,Wunderground v.1.15,2013-04-09 21:10:00,
2013-04-09 11:15:00,81.7,65.0,29.96,NE,45,8.0,-999.0,57,0.00,,,0.00,Wunderground v.1.15,2013-04-09 21:15:00,
2013-04-09 11:20:00,81.7,65.0,29.96,NE,45,8.0,-999.0,57,0.00,,,0.00,Wunderground v.1.15,2013-04-09 21:20:00,
2013-04-09 11:25:00,81.7,65.0,29.96,NE,45,8.0,-999.0,57,0.00,,,0.00,Wunderground v.1.15,2013-04-09 21:25:00,
2013-04-09 11:30:00,81.7,65.0,29.96,NE,45,8.0,-999.0,57,0.00,,,0.00,Wunderground v.1.15,2013-04-09 21:30:00,
2013-04-09 11:35:00,81.7,65.0,29.96,NE,45,8.0,-999.0,57,0.00,,,0.00,Wunderground v.1.15,2013-04-09 21:35:00,
2013-04-09 11:40:00,81.7,65.0,29.96,NE,45,8.0,-999.0,57,0.00,,,0.00,Wunderground v.1.15,2013-04-09 21:40:00,
2013-04-09 11:45:00,82.0,64.8,29.96,NE,45,7.0,-999.0,56,0.00,,,0.00,Wunderground v.1.15,2013-04-09 21:45:00,
2013-04-09 11:50:00,82.0,64.8,29.96,NE,45,7.0,-999.0,56,0.00,,,0.00,Wunderground v.1.15,2013-04-09 21:50:00,
2013-04-09 11:55:00,82.0,64.8,29.96,NE,45,7.0,-999.0,56,0.00,,,0.00,Wunderground v.1.15,2013-04-09 21:55:00,
2013-04-09 12:00:00,82.0,64.8,29.96,NE,45,7.0,-999.0,56,0.00,,,0.00,Wunderground v.1.15,2013-04-09 22:00:00,
2013-04-09 12:05:00,82.0,64.8,29.96,NE,45,7.0,-999.0,56,0.00,,,0.00,Wunderground v.1.15,2013-04-09 22:05:00,
2013-04-09 12:10:00,82.0,64.8,29.96,NE,45,7.0,-999.0,56,0.00,,,0.00,Wunderground v.1.15,2013-04-09 22:10:00,
2013-04-09 12:15:00,82.0,64.2,29.94,East,90,7.0,-999.0,55,0.00,,,0.00,Wunderground v.1.15,2013-04-09 22:15:00,
2013-04-09 12:20:00,82.0,64.2,29.94,East,90,7.0,-999.0,55,0.00,,,0.00,Wunderground v.1.15,2013-04-09 22:20:00,
2013-04-09 12:25:00,82.0,64.2,29.94,East,90,7.0,-999.0,55,0.00,,,0.00,Wunderground v.1.15,2013-04-09 22:25:00,
2013-04-09 12:30:00,82.0,64.2,29.94,East,90,7.0,-999.0,55,0.00,,,0.00,Wunderground v.1.15,2013-04-09 22:30:00,
2013-04-09 12:35:00,82.0,64.2,29.94,East,90,7.0,-999.0,55,0.00,,,0.00,Wunderground v.1.15,2013-04-09 22:35:00,
2013-04-09 12:40:00,82.0,64.2,29.94,East,90,7.0,-999.0,55,0.00,,,0.00,Wunderground v.1.15,2013-04-09 22:40:00,
2013-04-09 12:45:00,83.0,65.2,29.94,NE,45,7.0,-999.0,55,0.00,,,0.00,Wunderground v.1.15,2013-04-09 22:45:00,
2013-04-09 12:50:00,83.0,65.2,29.94,NE,45,7.0,-999.0,55,0.00,,,0.00,Wunderground v.1.15,2013-04-09 22:50:00,
2013-04-09 12:55:00,83.0,65.2,29.94,NE,45,7.0,-999.0,55,0.00,,,0.00,Wunderground v.1.15,2013-04-09 22:55:00,
2013-04-09 13:00:00,83.0,65.2,29.94,NE,45,7.0,-999.0,55,0.00,,,0.00,Wunderground v.1.15,2013-04-09 23:00:00,
2013-04-09 13:05:00,83.0,65.2,29.94,NE,45,7.0,-999.0,55,0.00,,,0.00,Wunderground v.1.15,2013-04-09 23:05:00,
2013-04-09 13:10:00,83.0,65.2,29.94,NE,45,7.0,-999.0,55,0.00,,,0.00,Wunderground v.1.15,2013-04-09 23:10:00,
2013-04-09 13:15:00,83.7,65.3,29.92,NE,45,7.0,-999.0,54,0.00,,,0.00,Wunderground v.1.15,2013-04-09 23:15:00,
2013-04-09 13:20:00,83.7,65.3,29.92,NE,45,7.0,-999.0,54,0.00,,,0.00,Wunderground v.1.15,2013-04-09 23:20:00,
2013-04-09 13:25:00,83.7,65.3,29.92,NE,45,7.0,-999.0,54,0.00,,,0.00,Wunderground v.1.15,2013-04-09 23:25:00,
2013-04-09 13:30:00,83.7,65.3,29.92,NE,45,7.0,-999.0,54,0.00,,,0.00,Wunderground v.1.15,2013-04-09 23:30:00,
2013-04-09 13:35:00,83.7,65.3,29.92,NE,45,7.0,-999.0,54,0.00,,,0.00,Wunderground v.1.15,2013-04-09 23:35:00,
2013-04-09 13:40:00,83.7,65.3,29.92,NE,45,7.0,-999.0,54,0.00,,,0.00,Wunderground v.1.15,2013-04-09 23:40:00,
2013-04-09 13:45:00,82.9,65.6,29.91,ENE,68,8.0,-999.0,56,0.00,,,0.00,Wunderground v.1.15,2013-04-09 23:45:00,
2013-04-09 13:50:00,82.9,65.6,29.91,ENE,68,8.0,-999.0,56,0.00,,,0.00,Wunderground v.1.15,2013-04-09 23:50:00,
2013-04-09 13:55:00,82.9,65.6,29.91,ENE,68,8.0,-999.0,56,0.00,,,0.00,Wunderground v.1.15,2013-04-09 23:55:00,
2013-04-09 14:00:00,82.9,65.6,29.91,ENE,68,8.0,-999.0,56,0.00,,,0.00,Wunderground v.1.15,2013-04-10 00:00:00,
2013-04-09 14:05:00,82.9,65.6,29.91,ENE,68,8.0,-999.0,56,0.00,,,0.00,Wunderground v.1.15,2013-04-10 00:05:00,
2013-04-09 14:10:00,82.9,65.6,29.91,ENE,68,8.0,-999.0,56,0.00,,,0.00,Wunderground v.1.15,2013-04-10 00:10:00,
2013-04-09 14:15:00,83.3,64.4,29.91,NE,45,9.0,-999.0,53,0.00,,,0.00,Wunderground v.1.15,2013-04-10 00:15:00,
2013-04-09 14:20:00,83.3,64.4,29.91,NE,45,9.0,-999.0,53,0.00,,,0.00,Wunderground v.1.15,2013-04-10 00:20:00,
2013-04-09 14:25:00,83.3,64.4,29.91,NE,45,9.0,-999.0,53,0.00,,,0.00,Wunderground v.1.15,2013-04-10 00:25:00,
2013-04-09 14:30:00,83.3,64.4,29.91,NE,45,9.0,-999.0,53,0.00,,,0.00,Wunderground v.1.15,2013-04-10 00:30:00,
2013-04-09 14:35:00,83.3,64.4,29.91,NE,45,9.0,-999.0,53,0.00,,,0.00,Wunderground v.1.15,2013-04-10 00:35:00,
2013-04-09 14:40:00,83.3,64.4,29.91,NE,45,9.0,-999.0,53,0.00,,,0.00,Wunderground v.1.15,2013-04-10 00:40:00,
2013-04-09 14:45:00,84.1,64.6,29.90,ENE,68,7.0,-999.0,52,0.00,,,0.00,Wunderground v.1.15,2013-04-10 00:45:00,
2013-04-09 14:50:00,84.1,64.6,29.90,ENE,68,7.0,-999.0,52,0.00,,,0.00,Wunderground v.1.15,2013-04-10 00:50:00,
2013-04-09 14:55:00,84.1,64.6,29.90,ENE,68,7.0,-999.0,52,0.00,,,0.00,Wunderground v.1.15,2013-04-10 00:55:00,
2013-04-09 15:00:00,84.1,64.6,29.90,ENE,68,7.0,-999.0,52,0.00,,,0.00,Wunderground v.1.15,2013-04-10 01:00:00,
2013-04-09 15:05:00,84.1,64.6,29.90,ENE,68,7.0,-999.0,52,0.00,,,0.00,Wunderground v.1.15,2013-04-10 01:05:00,
2013-04-09 15:10:00,84.1,64.6,29.90,ENE,68,7.0,-999.0,52,0.00,,,0.00,Wunderground v.1.15,2013-04-10 01:10:00,
2013-04-09 15:15:00,82.9,62.9,29.90,NE,45,7.0,-999.0,51,0.00,,,0.00,Wunderground v.1.15,2013-04-10 01:15:00,
2013-04-09 15:20:00,82.9,62.9,29.90,NE,45,7.0,-999.0,51,0.00,,,0.00,Wunderground v.1.15,2013-04-10 01:20:00,
2013-04-09 15:25:00,82.9,62.9,29.90,NE,45,7.0,-999.0,51,0.00,,,0.00,Wunderground v.1.15,2013-04-10 01:25:00,
2013-04-09 15:30:00,82.9,62.9,29.90,NE,45,7.0,-999.0,51,0.00,,,0.00,Wunderground v.1.15,2013-04-10 01:30:00,
2013-04-09 15:35:00,82.9,62.9,29.90,NE,45,7.0,-999.0,51,0.00,,,0.00,Wunderground v.1.15,2013-04-10 01:35:00,
2013-04-09 15:40:00,82.9,62.9,29.90,NE,45,7.0,-999.0,51,0.00,,,0.00,Wunderground v.1.15,2013-04-10 01:40:00,
2013-04-09 15:45:00,83.1,64.7,29.90,ENE,68,6.0,-999.0,54,0.00,,,0.00,Wunderground v.1.15,2013-04-10 01:45:00,
2013-04-09 15:50:00,83.1,64.7,29.90,ENE,68,6.0,-999.0,54,0.00,,,0.00,Wunderground v.1.15,2013-04-10 01:50:00,
2013-04-09 15:55:00,83.1,64.7,29.90,ENE,68,6.0,-999.0,54,0.00,,,0.00,Wunderground v.1.15,2013-04-10 01:55:00,
2013-04-09 16:00:00,83.1,64.7,29.90,ENE,68,6.0,-999.0,54,0.00,,,0.00,Wunderground v.1.15,2013-04-10 02:00:00,
2013-04-09 16:05:00,83.1,64.7,29.90,ENE,68,6.0,-999.0,54,0.00,,,0.00,Wunderground v.1.15,2013-04-10 02:05:00,
2013-04-09 16:10:00,83.1,64.7,29.90,ENE,68,6.0,-999.0,54,0.00,,,0.00,Wunderground v.1.15,2013-04-10 02:10:00,
2013-04-09 16:15:00,81.0,63.8,29.90,NE,45,9.0,-999.0,56,0.00,,,0.00,Wunderground v.1.15,2013-04-10 02:15:00,
2013-04-09 16:20:00,81.0,63.8,29.90,NE,45,9.0,-999.0,56,0.00,,,0.00,Wunderground v.1.15,2013-04-10 02:20:00,
2013-04-09 16:25:00,81.0,63.8,29.90,NE,45,9.0,-999.0,56,0.00,,,0.00,Wunderground v.1.15,2013-04-10 02:25:00,
2013-04-09 16:30:00,81.0,63.8,29.90,NE,45,9.0,-999.0,56,0.00,,,0.00,Wunderground v.1.15,2013-04-10 02:30:00,
2013-04-09 16:35:00,81.0,63.8,29.90,NE,45,9.0,-999.0,56,0.00,,,0.00,Wunderground v.1.15,2013-04-10 02:35:00,
2013-04-09 16:40:00,81.0,63.8,29.90,NE,45,9.0,-999.0,56,0.00,,,0.00,Wunderground v.1.15,2013-04-10 02:40:00,
2013-04-09 16:45:00,79.4,62.3,29.91,ENE,68,7.0,-999.0,56,0.00,,,0.00,Wunderground v.1.15,2013-04-10 02:45:00,
2013-04-09 16:50:00,79.4,62.3,29.91,ENE,68,7.0,-999.0,56,0.00,,,0.00,Wunderground v.1.15,2013-04-10 02:50:00,
2013-04-09 16:55:00,79.4,62.3,29.91,ENE,68,7.0,-999.0,56,0.00,,,0.00,Wunderground v.1.15,2013-04-10 02:55:00,
2013-04-09 17:00:00,79.4,62.3,29.91,ENE,68,7.0,-999.0,56,0.00,,,0.00,Wunderground v.1.15,2013-04-10 03:00:00,
2013-04-09 17:05:00,79.4,62.3,29.91,ENE,68,7.0,-999.0,56,0.00,,,0.00,Wunderground v.1.15,2013-04-10 03:05:00,
2013-04-09 17:10:00,79.4,62.3,29.91,ENE,68,7.0,-999.0,56,0.00,,,0.00,Wunderground v.1.15,2013-04-10 03:10:00,
2013-04-09 17:15:00,78.4,63.4,29.91,East,90,6.0,-999.0,60,0.00,,,0.00,Wunderground v.1.15,2013-04-10 03:15:00,
2013-04-09 17:20:00,78.4,63.4,29.91,East,90,6.0,-999.0,60,0.00,,,0.00,Wunderground v.1.15,2013-04-10 03:20:00,
2013-04-09 17:25:00,78.4,63.4,29.91,East,90,6.0,-999.0,60,0.00,,,0.00,Wunderground v.1.15,2013-04-10 03:25:00,
2013-04-09 17:30:00,78.4,63.4,29.91,East,90,6.0,-999.0,60,0.00,,,0.00,Wunderground v.1.15,2013-04-10 03:30:00,
2013-04-09 17:35:00,78.4,63.4,29.91,East,90,6.0,-999.0,60,0.00,,,0.00,Wunderground v.1.15,2013-04-10 03:35:00,
2013-04-09 17:40:00,78.4,63.4,29.91,East,90,6.0,-999.0,60,0.00,,,0.00,Wunderground v.1.15,2013-04-10 03:40:00,
2013-04-09 17:45:00,77.7,62.7,29.93,NE,45,4.0,-999.0,60,0.00,,,0.00,Wunderground v.1.15,2013-04-10 03:45:00,
2013-04-09 17:50:00,77.7,62.7,29.93,NE,45,4.0,-999.0,60,0.00,,,0.00,Wunderground v.1.15,2013-04-10 03:50:00,
2013-04-09 17:55:00,77.7,62.7,29.93,NE,45,4.0,-999.0,60,0.00,,,0.00,Wunderground v.1.15,2013-04-10 03:55:00,
2013-04-09 18:00:00,77.7,62.7,29.93,NE,45,4.0,-999.0,60,0.00,,,0.00,Wunderground v.1.15,2013-04-10 04:00:00,
2013-04-09 18:05:00,77.7,62.7,29.93,NE,45,4.0,-999.0,60,0.00,,,0.00,Wunderground v.1.15,2013-04-10 04:05:00,
2013-04-09 18:10:00,77.7,62.7,29.93,NE,45,4.0,-999.0,60,0.00,,,0.00,Wunderground v.1.15,2013-04-10 04:10:00,
2013-04-09 18:15:00,75.7,61.3,29.94,ENE,68,3.0,-999.0,61,0.00,,,0.00,Wunderground v.1.15,2013-04-10 04:15:00,
2013-04-09 18:20:00,75.7,61.3,29.94,ENE,68,3.0,-999.0,61,0.00,,,0.00,Wunderground v.1.15,2013-04-10 04:20:00,
2013-04-09 18:25:00,75.7,61.3,29.94,ENE,68,3.0,-999.0,61,0.00,,,0.00,Wunderground v.1.15,2013-04-10 04:25:00,
2013-04-09 18:30:00,75.7,61.3,29.94,ENE,68,3.0,-999.0,61,0.00,,,0.00,Wunderground v.1.15,2013-04-10 04:30:00,
2013-04-09 18:35:00,75.7,61.3,29.94,ENE,68,3.0,-999.0,61,0.00,,,0.00,Wunderground v.1.15,2013-04-10 04:35:00,
2013-04-09 18:40:00,75.7,61.3,29.94,ENE,68,3.0,-999.0,61,0.00,,,0.00,Wunderground v.1.15,2013-04-10 04:40:00,
2013-04-09 18:45:00,74.1,59.8,29.96,NE,45,4.0,-999.0,61,0.00,,,0.00,Wunderground v.1.15,2013-04-10 04:45:00,
2013-04-09 18:50:00,74.1,59.8,29.96,NE,45,4.0,-999.0,61,0.00,,,0.00,Wunderground v.1.15,2013-04-10 04:50:00,
2013-04-09 18:55:00,74.1,59.8,29.96,NE,45,4.0,-999.0,61,0.00,,,0.00,Wunderground v.1.15,2013-04-10 04:55:00,
2013-04-09 19:00:00,74.1,59.8,29.96,NE,45,4.0,-999.0,61,0.00,,,0.00,Wunderground v.1.15,2013-04-10 05:00:00,
2013-04-09 19:05:00,74.1,59.8,29.96,NE,45,4.0,-999.0,61,0.00,,,0.00,Wunderground v.1.15,2013-04-10 05:05:00,
2013-04-09 19:10:00,74.1,59.8,29.96,NE,45,4.0,-999.0,61,0.00,,,0.00,Wunderground v.1.15,2013-04-10 05:10:00,
2013-04-09 19:15:00,72.7,61.5,29.96,ENE,68,3.0,-999.0,68,0.00,,,0.00,Wunderground v.1.15,2013-04-10 05:15:00,
2013-04-09 19:20:00,72.7,61.5,29.96,ENE,68,3.0,-999.0,68,0.00,,,0.00,Wunderground v.1.15,2013-04-10 05:20:00,
2013-04-09 19:25:00,72.7,61.5,29.96,ENE,68,3.0,-999.0,68,0.00,,,0.00,Wunderground v.1.15,2013-04-10 05:25:00,
2013-04-09 19:30:00,72.7,61.5,29.96,ENE,68,3.0,-999.0,68,0.00,,,0.00,Wunderground v.1.15,2013-04-10 05:30:00,
2013-04-09 19:35:00,72.7,61.5,29.96,ENE,68,3.0,-999.0,68,0.00,,,0.00,Wunderground v.1.15,2013-04-10 05:35:00,
2013-04-09 19:40:00,72.7,61.5,29.96,ENE,68,3.0,-999.0,68,0.00,,,0.00,Wunderground v.1.15,2013-04-10 05:40:00,
2013-04-09 19:45:00,71.7,61.8,29.97,ENE,68,2.0,-999.0,71,0.00,,,0.00,Wunderground v.1.15,2013-04-10 05:45:00,
2013-04-09 19:50:00,71.7,61.8,29.97,ENE,68,2.0,-999.0,71,0.00,,,0.00,Wunderground v.1.15,2013-04-10 05:50:00,
2013-04-09 19:55:00,71.7,61.8,29.97,ENE,68,2.0,-999.0,71,0.00,,,0.00,Wunderground v.1.15,2013-04-10 05:55:00,
2013-04-09 20:00:00,71.7,61.8,29.97,ENE,68,2.0,-999.0,71,0.00,,,0.00,Wunderground v.1.15,2013-04-10 06:00:00,
2013-04-09 20:05:00,71.7,61.8,29.97,ENE,68,2.0,-999.0,71,0.00,,,0.00,Wunderground v.1.15,2013-04-10 06:05:00,
2013-04-09 20:10:00,71.7,61.8,29.97,ENE,68,2.0,-999.0,71,0.00,,,0.00,Wunderground v.1.15,2013-04-10 06:10:00,
2013-04-09 20:15:00,71.5,62.0,29.98,ENE,68,2.0,-999.0,72,0.00,,,0.00,Wunderground v.1.15,2013-04-10 06:15:00,
2013-04-09 20:20:00,71.5,62.0,29.98,ENE,68,2.0,-999.0,72,0.00,,,0.00,Wunderground v.1.15,2013-04-10 06:20:00,
2013-04-09 20:25:00,71.5,62.0,29.98,ENE,68,2.0,-999.0,72,0.00,,,0.00,Wunderground v.1.15,2013-04-10 06:25:00,
2013-04-09 20:30:00,71.5,62.0,29.98,ENE,68,2.0,-999.0,72,0.00,,,0.00,Wunderground v.1.15,2013-04-10 06:30:00,
2013-04-09 20:35:00,71.5,62.0,29.98,ENE,68,2.0,-999.0,72,0.00,,,0.00,Wunderground v.1.15,2013-04-10 06:35:00,
2013-04-09 20:40:00,71.5,62.0,29.98,ENE,68,2.0,-999.0,72,0.00,,,0.00,Wunderground v.1.15,2013-04-10 06:40:00,
2013-04-09 20:45:00,71.5,61.2,29.99,ENE,68,2.0,-999.0,70,0.00,,,0.00,Wunderground v.1.15,2013-04-10 06:45:00,
2013-04-09 20:50:00,71.5,61.2,29.99,ENE,68,2.0,-999.0,70,0.00,,,0.00,Wunderground v.1.15,2013-04-10 06:50:00,
2013-04-09 20:55:00,71.5,61.2,29.99,ENE,68,2.0,-999.0,70,0.00,,,0.00,Wunderground v.1.15,2013-04-10 06:55:00,
2013-04-09 21:00:00,71.5,61.2,29.99,ENE,68,2.0,-999.0,70,0.00,,,0.00,Wunderground v.1.15,2013-04-10 07:00:00,
2013-04-09 21:05:00,71.5,61.2,29.99,ENE,68,2.0,-999.0,70,0.00,,,0.00,Wunderground v.1.15,2013-04-10 07:05:00,
2013-04-09 21:10:00,71.5,61.2,29.99,ENE,68,2.0,-999.0,70,0.00,,,0.00,Wunderground v.1.15,2013-04-10 07:10:00,
2013-04-09 21:15:00,71.4,61.5,30.00,ENE,68,3.0,-999.0,71,0.00,,,0.00,Wunderground v.1.15,2013-04-10 07:15:00,
2013-04-09 21:20:00,71.4,61.5,30.00,ENE,68,3.0,-999.0,71,0.00,,,0.00,Wunderground v.1.15,2013-04-10 07:20:00,
2013-04-09 21:25:00,71.4,61.5,30.00,ENE,68,3.0,-999.0,71,0.00,,,0.00,Wunderground v.1.15,2013-04-10 07:25:00,
2013-04-09 21:30:00,71.4,61.5,30.00,ENE,68,3.0,-999.0,71,0.00,,,0.00,Wunderground v.1.15,2013-04-10 07:30:00,
2013-04-09 21:35:00,71.4,61.5,30.00,ENE,68,3.0,-999.0,71,0.00,,,0.00,Wunderground v.1.15,2013-04-10 07:35:00,
2013-04-09 21:40:00,71.4,61.5,30.00,ENE,68,3.0,-999.0,71,0.00,,,0.00,Wunderground v.1.15,2013-04-10 07:40:00,
2013-04-09 21:45:00,70.7,62.4,30.00,NE,45,4.0,-999.0,75,0.00,,,0.00,Wunderground v.1.15,2013-04-10 07:45:00,
2013-04-09 21:50:00,70.7,62.4,30.00,NE,45,4.0,-999.0,75,0.00,,,0.00,Wunderground v.1.15,2013-04-10 07:50:00,
2013-04-09 21:55:00,70.7,62.4,30.00,NE,45,4.0,-999.0,75,0.00,,,0.00,Wunderground v.1.15,2013-04-10 07:55:00,
2013-04-09 22:00:00,70.7,62.4,30.00,NE,45,4.0,-999.0,75,0.00,,,0.00,Wunderground v.1.15,2013-04-10 08:00:00,
2013-04-09 22:05:00,70.7,62.4,30.00,NE,45,4.0,-999.0,75,0.00,,,0.00,Wunderground v.1.15,2013-04-10 08:05:00,
2013-04-09 22:10:00,70.7,62.4,30.00,NE,45,4.0,-999.0,75,0.00,,,0.00,Wunderground v.1.15,2013-04-10 08:10:00,
2013-04-09 22:15:00,70.4,62.5,30.01,NE,45,3.0,-999.0,76,0.00,,,0.00,Wunderground v.1.15,2013-04-10 08:15:00,
2013-04-09 22:20:00,70.4,62.5,30.01,NE,45,3.0,-999.0,76,0.00,,,0.00,Wunderground v.1.15,2013-04-10 08:20:00,
2013-04-09 22:25:00,70.4,62.5,30.01,NE,45,3.0,-999.0,76,0.00,,,0.00,Wunderground v.1.15,2013-04-10 08:25:00,
2013-04-09 22:30:00,70.4,62.5,30.01,NE,45,3.0,-999.0,76,0.00,,,0.00,Wunderground v.1.15,2013-04-10 08:30:00,
2013-04-09 22:35:00,70.4,62.5,30.01,NE,45,3.0,-999.0,76,0.00,,,0.00,Wunderground v.1.15,2013-04-10 08:35:00,
2013-04-09 22:40:00,70.4,62.5,30.01,NE,45,3.0,-999.0,76,0.00,,,0.00,Wunderground v.1.15,2013-04-10 08:40:00,
2013-04-09 22:45:00,70.0,62.1,30.01,NE,45,4.0,-999.0,76,0.00,,,0.00,Wunderground v.1.15,2013-04-10 08:45:00,
2013-04-09 22:50:00,70.0,62.1,30.01,NE,45,4.0,-999.0,76,0.00,,,0.00,Wunderground v.1.15,2013-04-10 08:50:00,
2013-04-09 22:55:00,70.0,62.1,30.01,NE,45,4.0,-999.0,76,0.00,,,0.00,Wunderground v.1.15,2013-04-10 08:55:00,
2013-04-09 23:00:00,70.0,62.1,30.01,NE,45,4.0,-999.0,76,0.00,,,0.00,Wunderground v.1.15,2013-04-10 09:00:00,
2013-04-09 23:05:00,70.0,62.1,30.01,NE,45,4.0,-999.0,76,0.00,,,0.00,Wunderground v.1.15,2013-04-10 09:05:00,
2013-04-09 23:10:00,70.0,62.1,30.01,NE,45,4.0,-999.0,76,0.00,,,0.00,Wunderground v.1.15,2013-04-10 09:10:00,
2013-04-09 23:15:00,69.1,60.8,30.00,NE,45,1.0,-999.0,75,0.00,,,0.00,Wunderground v.1.15,2013-04-10 09:15:00,
2013-04-09 23:20:00,69.1,60.8,30.00,NE,45,1.0,-999.0,75,0.00,,,0.00,Wunderground v.1.15,2013-04-10 09:20:00,
2013-04-09 23:25:00,69.1,60.8,30.00,NE,45,1.0,-999.0,75,0.00,,,0.00,Wunderground v.1.15,2013-04-10 09:25:00,
2013-04-09 23:30:00,69.1,60.8,30.00,NE,45,1.0,-999.0,75,0.00,,,0.00,Wunderground v.1.15,2013-04-10 09:30:00,
2013-04-09 23:35:00,69.1,60.8,30.00,NE,45,1.0,-999.0,75,0.00,,,0.00,Wunderground v.1.15,2013-04-10 09:35:00,
2013-04-09 23:40:00,69.1,60.8,30.00,NE,45,1.0,-999.0,75,0.00,,,0.00,Wunderground v.1.15,2013-04-10 09:40:00,
2013-04-09 23:45:00,68.5,60.3,30.00,NE,45,1.0,-999.0,75,0.00,,,0.00,Wunderground v.1.15,2013-04-10 09:45:00,
2013-04-09 23:50:00,68.5,60.3,30.00,NE,45,1.0,-999.0,75,0.00,,,0.00,Wunderground v.1.15,2013-04-10 09:50:00,
2013-04-09 23:55:00,68.5,60.3,30.00,NE,45,1.0,-999.0,75,0.00,,,0.00,Wunderground v.1.15,2013-04-10 09:55:00,